Location: �chenoz-la-M�line
(47.6009°N, 6.1354°E)
Time: 13:05:57
(UTC+00:00)

SL-4 R/B - Pass Details

Date: 27 January 2021
Orbit: 427 x 664 km, 51.6° (Epoch: 03 March)

Event Time Altitude Azimuth Distance (km) Brightness Sun altitude
Exits shadow 04:55:16 82° 129° (SE) 509 1.8 -22.3°
Drops below altitude 10° 04:59:13 10° 67° (ENE) 1,778 5.5 -21.6°
Sets 05:01:32 0° 67° (ENE) 2,716 6.6 -21.3°
